Time,TemperatureF,DewpointF,PressureIn,WindDirection,WindDirectionDegrees,WindSpeedMPH,WindSpeedGustMPH,Humidity,HourlyPrecipIn,Conditions,Clouds,dailyrainin,SoftwareType,DateUTC
2013-08-07 00:02:00,77.0,-99.9,-100.00,East,84,2.0,3.0,-999,0.00,,,0.00,,2013-08-07 05:02:00,
2013-08-07 00:11:00,77.0,-99.9,-100.00,East,84,2.0,3.0,-999,0.00,,,0.00,,2013-08-07 05:11:00,
2013-08-07 00:22:00,77.0,-99.9,-100.00,East,84,2.0,3.0,-999,0.00,,,0.00,,2013-08-07 05:22:00,
2013-08-07 00:43:00,76.0,-99.9,-100.00,SE,134,1.0,2.0,-999,0.00,,,0.00,,2013-08-07 05:43:00,
2013-08-07 00:52:00,76.0,-99.9,-100.00,SE,134,1.0,2.0,-999,0.00,,,0.00,,2013-08-07 05:52:00,
2013-08-07 01:12:00,76.0,-99.9,-100.00,South,179,3.0,4.0,-999,0.00,,,0.00,,2013-08-07 06:12:00,
2013-08-07 01:22:00,76.0,-99.9,-100.00,South,179,3.0,4.0,-999,0.00,,,0.00,,2013-08-07 06:22:00,
2013-08-07 01:43:00,77.0,-99.9,-100.00,South,176,4.0,7.0,-999,0.00,,,0.00,,2013-08-07 06:43:00,
2013-08-07 01:52:00,77.0,-99.9,-100.00,South,176,4.0,7.0,-999,0.00,,,0.00,,2013-08-07 06:52:00,
2013-08-07 02:12:00,78.0,-99.9,-100.00,SSE,158,7.0,8.0,-999,0.00,,,0.00,,2013-08-07 07:12:00,
2013-08-07 02:22:00,78.0,-99.9,-100.00,SSE,158,7.0,8.0,-999,0.00,,,0.00,,2013-08-07 07:22:00,
2013-08-07 02:44:00,77.0,-99.9,-100.00,SSE,161,5.0,8.0,-999,0.00,,,0.00,,2013-08-07 07:44:00,
2013-08-07 02:53:00,77.0,-99.9,-100.00,SSE,161,5.0,8.0,-999,0.00,,,0.00,,2013-08-07 07:53:00,
2013-08-07 03:02:00,77.0,-99.9,-100.00,SSE,160,8.0,9.0,-999,0.00,,,0.00,,2013-08-07 08:02:00,
2013-08-07 03:11:00,77.0,-99.9,-100.00,SSE,160,8.0,9.0,-999,0.00,,,0.00,,2013-08-07 08:11:00,
2013-08-07 03:22:00,77.0,-99.9,-100.00,SSE,160,8.0,9.0,-999,0.00,,,0.00,,2013-08-07 08:22:00,
2013-08-07 03:44:00,76.0,-99.9,-100.00,SSW,200,2.0,3.0,-999,0.00,,,0.00,,2013-08-07 08:44:00,
2013-08-07 03:53:00,76.0,-99.9,-100.00,SSW,200,2.0,3.0,-999,0.00,,,0.00,,2013-08-07 08:53:00,
2013-08-07 04:12:00,76.0,-99.9,-100.00,SSE,160,6.0,11.0,-999,0.00,,,0.00,,2013-08-07 09:12:00,
2013-08-07 04:22:00,76.0,-99.9,-100.00,SSE,160,6.0,11.0,-999,0.00,,,0.00,,2013-08-07 09:22:00,
2013-08-07 04:32:00,76.0,-99.9,-100.00,South,170,3.0,6.0,-999,0.00,,,0.00,,2013-08-07 09:32:00,
2013-08-07 04:43:00,76.0,-99.9,-100.00,South,170,3.0,6.0,-999,0.00,,,0.00,,2013-08-07 09:43:00,
2013-08-07 04:54:00,76.0,-99.9,-100.00,South,170,3.0,6.0,-999,0.00,,,0.00,,2013-08-07 09:54:00,
2013-08-07 05:01:00,76.0,-99.9,-100.00,SSW,204,0.0,1.0,-999,0.00,,,0.00,,2013-08-07 10:01:00,
2013-08-07 05:11:00,76.0,-99.9,-100.00,SSW,204,0.0,1.0,-999,0.00,,,0.00,,2013-08-07 10:11:00,
2013-08-07 05:22:00,76.0,-99.9,-100.00,SSW,204,0.0,1.0,-999,0.00,,,0.00,,2013-08-07 10:22:00,
2013-08-07 05:32:00,75.0,-99.9,-100.00,SSE,168,2.0,4.0,-999,0.00,,,0.00,,2013-08-07 10:32:00,
2013-08-07 05:43:00,75.0,-99.9,-100.00,SSE,168,2.0,4.0,-999,0.00,,,0.00,,2013-08-07 10:43:00,
2013-08-07 05:52:00,75.0,-99.9,-100.00,SSE,168,2.0,4.0,-999,0.00,,,0.00,,2013-08-07 10:52:00,
2013-08-07 06:11:00,75.0,-99.9,-100.00,SSW,203,1.0,2.0,-999,0.00,,,0.00,,2013-08-07 11:11:00,
2013-08-07 06:22:00,75.0,-99.9,-100.00,SSW,203,1.0,2.0,-999,0.00,,,0.00,,2013-08-07 11:22:00,
2013-08-07 06:43:00,76.0,-99.9,-100.00,NNW,341,7.0,10.0,-999,0.00,,,0.00,,2013-08-07 11:43:00,
2013-08-07 06:53:00,76.0,-99.9,-100.00,NNW,341,7.0,10.0,-999,0.00,,,0.00,,2013-08-07 11:53:00,
2013-08-07 07:02:00,75.0,-99.9,-100.00,NW,311,2.0,3.0,-999,0.00,,,0.00,,2013-08-07 12:02:00,
2013-08-07 07:12:00,75.0,-99.9,-100.00,NW,311,2.0,3.0,-999,0.00,,,0.00,,2013-08-07 12:12:00,
2013-08-07 07:22:00,75.0,-99.9,-100.00,NW,311,2.0,3.0,-999,0.00,,,0.00,,2013-08-07 12:22:00,
2013-08-07 07:30:00,75.0,-99.9,-100.00,South,188,1.0,3.0,-999,0.00,,,0.00,,2013-08-07 12:30:00,
2013-08-07 07:43:00,75.0,-99.9,-100.00,SW,215,2.0,4.0,-999,0.00,,,0.00,,2013-08-07 12:43:00,
2013-08-07 07:53:00,75.0,-99.9,-100.00,SW,215,2.0,4.0,-999,0.00,,,0.00,,2013-08-07 12:53:00,
2013-08-07 08:12:00,75.0,-99.9,-100.00,South,188,1.0,3.0,-999,0.00,,,0.00,,2013-08-07 13:12:00,
2013-08-07 08:22:00,75.0,-99.9,-100.00,South,188,1.0,3.0,-999,0.00,,,0.00,,2013-08-07 13:22:00,
2013-08-07 09:12:00,76.0,-99.9,-100.00,South,169,3.0,6.0,-999,0.00,,,0.00,,2013-08-07 14:12:00,
2013-08-07 09:22:00,76.0,-99.9,-100.00,South,169,3.0,6.0,-999,0.00,,,0.00,,2013-08-07 14:22:00,
2013-08-07 09:33:00,78.0,-99.9,-100.00,SSW,202,2.0,4.0,-999,0.00,,,0.00,,2013-08-07 14:33:00,
2013-08-07 09:43:00,78.0,-99.9,-100.00,SSW,202,2.0,4.0,-999,0.00,,,0.00,,2013-08-07 14:43:00,
2013-08-07 09:52:00,78.0,-99.9,-100.00,SSW,202,2.0,4.0,-999,0.00,,,0.00,,2013-08-07 14:52:00,
2013-08-07 10:13:00,78.0,-99.9,-100.00,WSW,254,4.0,7.0,-999,0.00,,,0.00,,2013-08-07 15:13:00,
2013-08-07 10:22:00,78.0,-99.9,-100.00,WSW,254,4.0,7.0,-999,0.00,,,0.00,,2013-08-07 15:22:00,
2013-08-07 10:44:00,78.0,-99.9,-100.00,SW,226,1.0,5.0,-999,0.00,,,0.00,,2013-08-07 15:44:00,
2013-08-07 10:53:00,78.0,-99.9,-100.00,SW,226,1.0,5.0,-999,0.00,,,0.00,,2013-08-07 15:53:00,
2013-08-07 11:11:00,79.0,-99.9,-100.00,SW,225,1.0,3.0,-999,0.00,,,0.00,,2013-08-07 16:11:00,
2013-08-07 11:22:00,79.0,-99.9,-100.00,SW,225,1.0,3.0,-999,0.00,,,0.00,,2013-08-07 16:22:00,
2013-08-07 11:33:00,79.0,-99.9,-100.00,WSW,247,1.0,4.0,-999,0.00,,,0.00,,2013-08-07 16:33:00,
2013-08-07 11:43:00,79.0,-99.9,-100.00,WSW,247,1.0,4.0,-999,0.00,,,0.00,,2013-08-07 16:43:00,
2013-08-07 11:53:00,79.0,-99.9,-100.00,WSW,247,1.0,4.0,-999,0.00,,,0.00,,2013-08-07 16:53:00,
2013-08-07 12:02:00,81.0,-99.9,-100.00,WSW,255,1.0,3.0,-999,0.00,,,0.00,,2013-08-07 17:02:00,
2013-08-07 12:11:00,81.0,-99.9,-100.00,WSW,255,1.0,3.0,-999,0.00,,,0.00,,2013-08-07 17:11:00,
2013-08-07 12:23:00,81.0,-99.9,-100.00,WSW,255,1.0,3.0,-999,0.00,,,0.00,,2013-08-07 17:23:00,
2013-08-07 12:33:00,83.0,-99.9,-100.00,WNW,286,2.0,4.0,-999,0.00,,,0.00,,2013-08-07 17:33:00,
2013-08-07 12:43:00,83.0,-99.9,-100.00,WNW,286,2.0,4.0,-999,0.00,,,0.00,,2013-08-07 17:43:00,
2013-08-07 12:52:00,83.0,-99.9,-100.00,WNW,286,2.0,4.0,-999,0.00,,,0.00,,2013-08-07 17:52:00,
2013-08-07 13:12:00,84.0,-99.9,-100.00,NE,35,3.0,4.0,-999,0.00,,,0.00,,2013-08-07 18:12:00,
2013-08-07 13:22:00,84.0,-99.9,-100.00,NE,35,3.0,4.0,-999,0.00,,,0.00,,2013-08-07 18:22:00,
2013-08-07 13:32:00,86.0,-99.9,-100.00,NNE,33,2.0,4.0,-999,0.00,,,0.00,,2013-08-07 18:32:00,
2013-08-07 13:43:00,86.0,-99.9,-100.00,NNE,33,2.0,4.0,-999,0.00,,,0.00,,2013-08-07 18:43:00,
2013-08-07 13:52:00,86.0,-99.9,-100.00,NNE,33,2.0,4.0,-999,0.00,,,0.00,,2013-08-07 18:52:00,
2013-08-07 14:11:00,87.0,-99.9,-100.00,North,358,1.0,2.0,-999,0.00,,,0.00,,2013-08-07 19:11:00,
2013-08-07 14:22:00,87.0,-99.9,-100.00,North,358,1.0,2.0,-999,0.00,,,0.00,,2013-08-07 19:22:00,
2013-08-07 14:44:00,86.0,-99.9,-100.00,NNE,26,2.0,4.0,-999,0.00,,,0.00,,2013-08-07 19:44:00,
2013-08-07 14:53:00,86.0,-99.9,-100.00,NNE,26,2.0,4.0,-999,0.00,,,0.00,,2013-08-07 19:53:00,
2013-08-07 15:02:00,85.0,-99.9,-100.00,North,352,5.0,9.0,-999,0.00,,,0.00,,2013-08-07 20:02:00,
2013-08-07 15:11:00,85.0,-99.9,-100.00,North,352,5.0,9.0,-999,0.00,,,0.00,,2013-08-07 20:11:00,
2013-08-07 15:22:00,85.0,-99.9,-100.00,North,352,5.0,9.0,-999,0.00,,,0.00,,2013-08-07 20:22:00,
2013-08-07 15:33:00,86.0,-99.9,-100.00,North,355,8.0,10.0,-999,0.00,,,0.00,,2013-08-07 20:33:00,
2013-08-07 15:43:00,86.0,-99.9,-100.00,North,355,8.0,10.0,-999,0.00,,,0.00,,2013-08-07 20:43:00,
2013-08-07 15:52:00,86.0,-99.9,-100.00,North,355,8.0,10.0,-999,0.00,,,0.00,,2013-08-07 20:52:00,
2013-08-07 16:02:00,87.0,-99.9,-100.00,NNW,347,12.0,16.0,-999,0.01,,,0.01,,2013-08-07 21:02:00,
2013-08-07 16:12:00,87.0,-99.9,-100.00,NNW,347,12.0,16.0,-999,0.01,,,0.01,,2013-08-07 21:12:00,
2013-08-07 16:22:00,87.0,-99.9,-100.00,NNW,347,12.0,16.0,-999,0.01,,,0.01,,2013-08-07 21:22:00,
2013-08-07 16:43:00,86.0,-99.9,-100.00,NNW,341,11.0,15.0,-999,0.01,,,0.01,,2013-08-07 21:43:00,
2013-08-07 16:52:00,86.0,-99.9,-100.00,NNW,341,11.0,15.0,-999,0.01,,,0.01,,2013-08-07 21:52:00,
2013-08-07 17:02:00,87.0,-99.9,-100.00,NNW,342,11.0,14.0,-999,0.00,,,0.01,,2013-08-07 22:02:00,
2013-08-07 17:12:00,87.0,-99.9,-100.00,NNW,342,11.0,14.0,-999,0.00,,,0.01,,2013-08-07 22:12:00,
2013-08-07 17:22:00,87.0,-99.9,-100.00,NNW,342,11.0,14.0,-999,0.00,,,0.01,,2013-08-07 22:22:00,
2013-08-07 17:32:00,88.0,-99.9,-100.00,NNW,337,12.0,16.0,-999,0.00,,,0.01,,2013-08-07 22:32:00,
2013-08-07 17:43:00,88.0,-99.9,-100.00,NNW,337,12.0,16.0,-999,0.00,,,0.01,,2013-08-07 22:43:00,
2013-08-07 17:52:00,88.0,-99.9,-100.00,NNW,337,12.0,16.0,-999,0.00,,,0.01,,2013-08-07 22:52:00,
2013-08-07 18:02:00,88.0,-99.9,-100.00,NNW,343,11.0,15.0,-999,0.00,,,0.01,,2013-08-07 23:02:00,
2013-08-07 18:11:00,88.0,-99.9,-100.00,NNW,343,11.0,15.0,-999,0.00,,,0.01,,2013-08-07 23:11:00,
2013-08-07 18:22:00,88.0,-99.9,-100.00,NNW,343,11.0,15.0,-999,0.00,,,0.01,,2013-08-07 23:22:00,
2013-08-07 18:32:00,87.0,-99.9,-100.00,NNW,332,12.0,15.0,-999,0.00,,,0.01,,2013-08-07 23:32:00,
2013-08-07 18:43:00,87.0,-99.9,-100.00,NNW,332,12.0,15.0,-999,0.00,,,0.01,,2013-08-07 23:43:00,
2013-08-07 18:52:00,87.0,-99.9,-100.00,NNW,332,12.0,15.0,-999,0.00,,,0.01,,2013-08-07 23:52:00,
2013-08-07 19:02:00,86.0,-99.9,-100.00,NNW,343,11.0,13.0,-999,0.00,,,0.01,,2013-08-08 00:02:00,
2013-08-07 19:11:00,86.0,-99.9,-100.00,NNW,343,11.0,13.0,-999,0.00,,,0.01,,2013-08-08 00:11:00,
2013-08-07 19:22:00,86.0,-99.9,-100.00,NNW,343,11.0,13.0,-999,0.00,,,0.01,,2013-08-08 00:22:00,
2013-08-07 19:32:00,84.0,-99.9,-100.00,NNW,331,9.0,15.0,-999,0.00,,,0.01,,2013-08-08 00:32:00,
2013-08-07 19:43:00,84.0,-99.9,-100.00,NNW,331,9.0,15.0,-999,0.00,,,0.01,,2013-08-08 00:43:00,
2013-08-07 19:53:00,84.0,-99.9,-100.00,NNW,331,9.0,15.0,-999,0.00,,,0.01,,2013-08-08 00:53:00,
2013-08-07 20:11:00,83.0,-99.9,-100.00,NNW,329,6.0,9.0,-999,0.00,,,0.01,,2013-08-08 01:11:00,
2013-08-07 20:22:00,83.0,-99.9,-100.00,NNW,329,6.0,9.0,-999,0.00,,,0.01,,2013-08-08 01:22:00,
2013-08-07 20:32:00,81.0,-99.9,-100.00,NNW,328,6.0,11.0,-999,0.00,,,0.01,,2013-08-08 01:32:00,
2013-08-07 20:43:00,81.0,-99.9,-100.00,NNW,328,6.0,11.0,-999,0.00,,,0.01,,2013-08-08 01:43:00,
2013-08-07 20:53:00,81.0,-99.9,-100.00,NNW,328,6.0,11.0,-999,0.00,,,0.01,,2013-08-08 01:53:00,
2013-08-07 21:11:00,79.0,-99.9,-100.00,NW,322,5.0,7.0,-999,0.00,,,0.01,,2013-08-08 02:11:00,
2013-08-07 21:22:00,79.0,-99.9,-100.00,NW,322,5.0,7.0,-999,0.00,,,0.01,,2013-08-08 02:22:00,
2013-08-07 21:32:00,78.0,-99.9,-100.00,NW,321,5.0,6.0,-999,0.00,,,0.01,,2013-08-08 02:32:00,
2013-08-07 21:43:00,78.0,-99.9,-100.00,NW,321,5.0,6.0,-999,0.00,,,0.01,,2013-08-08 02:43:00,
2013-08-07 21:53:00,78.0,-99.9,-100.00,NW,321,5.0,6.0,-999,0.00,,,0.01,,2013-08-08 02:53:00,
2013-08-07 22:12:00,76.0,-99.9,-100.00,NW,305,3.0,5.0,-999,0.00,,,0.01,,2013-08-08 03:12:00,
2013-08-07 22:22:00,76.0,-99.9,-100.00,NW,305,3.0,5.0,-999,0.00,,,0.01,,2013-08-08 03:22:00,
2013-08-07 22:32:00,76.0,-99.9,-100.00,NNW,335,8.0,10.0,-999,0.00,,,0.01,,2013-08-08 03:32:00,
2013-08-07 22:43:00,76.0,-99.9,-100.00,NNW,335,8.0,10.0,-999,0.00,,,0.01,,2013-08-08 03:43:00,
2013-08-07 22:52:00,76.0,-99.9,-100.00,NNW,335,8.0,10.0,-999,0.00,,,0.01,,2013-08-08 03:52:00,
2013-08-07 23:12:00,74.0,-99.9,-100.00,NW,324,8.0,10.0,-999,0.00,,,0.01,,2013-08-08 04:12:00,
2013-08-07 23:22:00,74.0,-99.9,-100.00,NW,324,8.0,10.0,-999,0.00,,,0.01,,2013-08-08 04:22:00,
2013-08-07 23:44:00,74.0,-99.9,-100.00,NNW,339,10.0,12.0,-999,0.00,,,0.01,,2013-08-08 04:44:00,
2013-08-07 23:53:00,74.0,-99.9,-100.00,NNW,339,10.0,12.0,-999,0.00,,,0.01,,2013-08-08 04:53:00,